Time,TemperatureF,DewpointF,PressureIn,WindDirection,WindDirectionDegrees,WindSpeedMPH,WindSpeedGustMPH,Humidity,HourlyPrecipIn,Conditions,Clouds,dailyrainin,SolarRadiationWatts/m^2,SoftwareType,DateUTC
2013-04-24 00:02:00,49.0,43.0,-100.00,NNE,20,5.0,11.0,81,-99.99,,,0.00,0.000000,,2013-04-24 07:02:00,
2013-04-24 00:11:00,49.0,43.0,-100.00,NNE,20,5.0,11.0,81,-99.99,,,0.00,0.000000,,2013-04-24 07:11:00,
2013-04-24 00:41:00,48.0,44.0,-100.00,NNE,31,4.0,11.0,84,-99.99,,,0.00,0.000000,,2013-04-24 07:41:00,
2013-04-24 00:52:00,48.0,44.0,-100.00,NNE,31,4.0,11.0,84,-99.99,,,0.00,0.000000,,2013-04-24 07:52:00,
2013-04-24 01:01:00,48.0,44.0,-100.00,NNE,31,4.0,11.0,84,-99.99,,,0.00,0.000000,,2013-04-24 08:01:00,
2013-04-24 01:11:00,48.0,44.0,-100.00,NNE,31,4.0,11.0,84,-99.99,,,0.00,0.000000,,2013-04-24 08:11:00,
2013-04-24 01:42:00,46.0,43.0,-100.00,NE,47,1.0,2.0,88,-99.99,,,0.00,0.000000,,2013-04-24 08:42:00,
2013-04-24 01:52:00,46.0,43.0,-100.00,NE,47,1.0,2.0,88,-99.99,,,0.00,0.000000,,2013-04-24 08:52:00,
2013-04-24 02:01:00,46.0,43.0,-100.00,NE,47,1.0,2.0,88,-99.99,,,0.00,0.000000,,2013-04-24 09:01:00,
2013-04-24 02:11:00,46.0,43.0,-100.00,NE,47,1.0,2.0,88,-99.99,,,0.00,0.000000,,2013-04-24 09:11:00,
2013-04-24 02:42:00,43.0,41.0,-100.00,NNE,20,0.0,1.0,92,-99.99,,,0.00,0.000000,,2013-04-24 09:42:00,
2013-04-24 02:53:00,43.0,41.0,-100.00,NNE,20,0.0,1.0,92,-99.99,,,0.00,0.000000,,2013-04-24 09:53:00,
2013-04-24 03:02:00,43.0,41.0,-100.00,NNE,20,0.0,1.0,92,-99.99,,,0.00,0.000000,,2013-04-24 10:02:00,
2013-04-24 03:12:00,43.0,41.0,-100.00,NNE,20,0.0,1.0,92,-99.99,,,0.00,0.000000,,2013-04-24 10:12:00,
2013-04-24 03:42:00,42.0,40.0,-100.00,NE,55,2.0,5.0,94,-99.99,,,0.00,0.000000,,2013-04-24 10:42:00,
2013-04-24 03:53:00,42.0,40.0,-100.00,NE,55,2.0,5.0,94,-99.99,,,0.00,0.000000,,2013-04-24 10:53:00,
2013-04-24 04:02:00,42.0,40.0,-100.00,NE,55,2.0,5.0,94,-99.99,,,0.00,0.000000,,2013-04-24 11:02:00,
2013-04-24 04:11:00,42.0,40.0,-100.00,NE,55,2.0,5.0,94,-99.99,,,0.00,0.000000,,2013-04-24 11:11:00,
2013-04-24 04:42:00,45.0,43.0,-100.00,NE,48,4.0,6.0,94,-99.99,,,0.00,0.000000,,2013-04-24 11:42:00,
2013-04-24 04:52:00,45.0,43.0,-100.00,NE,48,4.0,6.0,94,-99.99,,,0.00,0.000000,,2013-04-24 11:52:00,
2013-04-24 05:02:00,45.0,43.0,-100.00,NE,48,4.0,6.0,94,-99.99,,,0.00,0.000000,,2013-04-24 12:02:00,
2013-04-24 05:11:00,45.0,43.0,-100.00,NE,48,4.0,6.0,94,-99.99,,,0.00,0.000000,,2013-04-24 12:11:00,
2013-04-24 05:42:00,43.0,42.0,-100.00,NE,34,3.0,6.0,94,-99.99,,,0.00,0.000000,,2013-04-24 12:42:00,
2013-04-24 05:52:00,43.0,42.0,-100.00,NE,34,3.0,6.0,94,-99.99,,,0.00,0.000000,,2013-04-24 12:52:00,
2013-04-24 06:01:00,43.0,42.0,-100.00,NE,34,3.0,6.0,94,-99.99,,,0.00,0.000000,,2013-04-24 13:01:00,
2013-04-24 06:12:00,43.0,42.0,-100.00,NE,34,3.0,6.0,94,-99.99,,,0.00,0.000000,,2013-04-24 13:12:00,
2013-04-24 07:41:00,44.0,41.0,-100.00,NNE,24,3.0,5.0,91,-99.99,,,0.00,100.760002,,2013-04-24 14:41:00,
2013-04-24 07:52:00,44.0,41.0,-100.00,NNE,24,3.0,5.0,91,-99.99,,,0.00,100.760002,,2013-04-24 14:52:00,
2013-04-24 08:01:00,44.0,41.0,-100.00,NNE,24,3.0,5.0,91,-99.99,,,0.00,100.760002,,2013-04-24 15:01:00,
2013-04-24 08:11:00,44.0,41.0,-100.00,NNE,24,3.0,5.0,91,-99.99,,,0.00,100.760002,,2013-04-24 15:11:00,
2013-04-24 08:42:00,49.0,40.0,-100.00,NE,48,7.0,12.0,71,-99.99,,,0.00,290.089996,,2013-04-24 15:42:00,
2013-04-24 08:53:00,49.0,40.0,-100.00,NE,48,7.0,12.0,71,-99.99,,,0.00,290.089996,,2013-04-24 15:53:00,
2013-04-24 09:03:00,49.0,40.0,-100.00,NE,48,7.0,12.0,71,-99.99,,,0.00,290.089996,,2013-04-24 16:03:00,
2013-04-24 09:12:00,49.0,40.0,-100.00,NE,48,7.0,12.0,71,-99.99,,,0.00,290.089996,,2013-04-24 16:12:00,
2013-04-24 09:42:00,56.0,39.0,-100.00,ENE,59,7.0,12.0,54,-99.99,,,0.00,495.329987,,2013-04-24 16:42:00,
2013-04-24 09:52:00,56.0,39.0,-100.00,ENE,59,7.0,12.0,54,-99.99,,,0.00,495.329987,,2013-04-24 16:52:00,
2013-04-24 10:02:00,56.0,39.0,-100.00,ENE,59,7.0,12.0,54,-99.99,,,0.00,495.329987,,2013-04-24 17:02:00,
2013-04-24 10:12:00,56.0,39.0,-100.00,ENE,59,7.0,12.0,54,-99.99,,,0.00,495.329987,,2013-04-24 17:12:00,
2013-04-24 10:42:00,63.0,34.0,-100.00,NE,55,7.0,15.0,33,-99.99,,,0.00,676.169983,,2013-04-24 17:42:00,
2013-04-24 10:52:00,63.0,34.0,-100.00,NE,55,7.0,15.0,33,-99.99,,,0.00,676.169983,,2013-04-24 17:52:00,
2013-04-24 11:02:00,63.0,34.0,-100.00,NE,55,7.0,15.0,33,-99.99,,,0.00,676.169983,,2013-04-24 18:02:00,
2013-04-24 11:12:00,63.0,34.0,-100.00,NE,55,7.0,15.0,33,-99.99,,,0.00,676.169983,,2013-04-24 18:12:00,
2013-04-24 11:42:00,70.0,29.0,-100.00,NE,49,7.0,17.0,21,-99.99,,,0.00,827.489990,,2013-04-24 18:42:00,
2013-04-24 11:52:00,70.0,29.0,-100.00,NE,49,7.0,17.0,21,-99.99,,,0.00,827.489990,,2013-04-24 18:52:00,
2013-04-24 12:42:00,74.0,26.0,-100.00,ENE,64,10.0,19.0,16,-99.99,,,-99.99,916.979980,,2013-04-24 19:42:00,
2013-04-24 12:52:00,74.0,26.0,-100.00,ENE,64,10.0,19.0,16,-99.99,,,-99.99,916.979980,,2013-04-24 19:52:00,
2013-04-24 13:42:00,69.0,42.0,-100.00,NNW,331,6.0,10.0,37,-99.99,,,0.00,944.869995,,2013-04-24 20:42:00,
2013-04-24 13:52:00,69.0,42.0,-100.00,NNW,331,6.0,10.0,37,-99.99,,,0.00,944.869995,,2013-04-24 20:52:00,
2013-04-24 14:02:00,69.0,42.0,-100.00,NNW,331,6.0,10.0,37,-99.99,,,0.00,944.869995,,2013-04-24 21:02:00,
2013-04-24 14:11:00,69.0,42.0,-100.00,NNW,331,6.0,10.0,37,-99.99,,,0.00,944.869995,,2013-04-24 21:11:00,
2013-04-24 14:42:00,67.0,41.0,-100.00,NNW,338,10.0,18.0,38,-99.99,,,0.00,926.270020,,2013-04-24 21:42:00,
2013-04-24 14:52:00,67.0,41.0,-100.00,NNW,338,10.0,18.0,38,-99.99,,,0.00,926.270020,,2013-04-24 21:52:00,
2013-04-24 15:03:00,67.0,41.0,-100.00,NNW,338,10.0,18.0,38,-99.99,,,0.00,926.270020,,2013-04-24 22:03:00,
2013-04-24 15:42:00,65.0,39.0,-100.00,NNW,342,12.0,23.0,38,-99.99,,,0.00,843.760010,,2013-04-24 22:42:00,
2013-04-24 15:52:00,65.0,39.0,-100.00,NNW,342,12.0,23.0,38,-99.99,,,0.00,843.760010,,2013-04-24 22:52:00,
2013-04-24 16:02:00,65.0,39.0,-100.00,NNW,342,12.0,23.0,38,-99.99,,,0.00,843.760010,,2013-04-24 23:02:00,
2013-04-24 16:12:00,65.0,39.0,-100.00,NNW,342,12.0,23.0,38,-99.99,,,0.00,843.760010,,2013-04-24 23:12:00,
2013-04-24 16:42:00,64.0,39.0,-100.00,NNW,346,10.0,18.0,40,-99.99,,,0.00,710.099976,,2013-04-24 23:42:00,
2013-04-24 16:52:00,64.0,39.0,-100.00,NNW,346,10.0,18.0,40,-99.99,,,0.00,710.099976,,2013-04-24 23:52:00,
2013-04-24 17:01:00,64.0,39.0,-100.00,NNW,346,10.0,18.0,40,-99.99,,,0.00,710.099976,,2013-04-25 00:01:00,
2013-04-24 17:12:00,64.0,39.0,-100.00,NNW,346,10.0,18.0,40,-99.99,,,0.00,710.099976,,2013-04-25 00:12:00,
2013-04-24 17:41:00,65.0,38.0,-100.00,North,1,8.0,21.0,37,-99.99,,,0.00,539.380005,,2013-04-25 00:41:00,
2013-04-24 17:52:00,65.0,38.0,-100.00,North,1,8.0,21.0,37,-99.99,,,0.00,539.380005,,2013-04-25 00:52:00,
2013-04-24 18:01:00,65.0,38.0,-100.00,North,1,8.0,21.0,37,-99.99,,,0.00,539.380005,,2013-04-25 01:01:00,
2013-04-24 18:11:00,65.0,38.0,-100.00,North,1,8.0,21.0,37,-99.99,,,0.00,539.380005,,2013-04-25 01:11:00,
2013-04-24 18:42:00,66.0,38.0,-100.00,North,358,8.0,17.0,35,-99.99,,,0.00,341.109985,,2013-04-25 01:42:00,
2013-04-24 18:52:00,66.0,38.0,-100.00,North,358,8.0,17.0,35,-99.99,,,0.00,341.109985,,2013-04-25 01:52:00,
2013-04-24 19:01:00,66.0,38.0,-100.00,North,358,8.0,17.0,35,-99.99,,,0.00,341.109985,,2013-04-25 02:01:00,
2013-04-24 19:11:00,66.0,38.0,-100.00,North,358,8.0,17.0,35,-99.99,,,0.00,341.109985,,2013-04-25 02:11:00,
2013-04-24 20:02:00,62.0,39.0,-100.00,North,5,7.0,15.0,41,-99.99,,,0.00,66.010002,,2013-04-25 03:02:00,
2013-04-24 20:11:00,62.0,39.0,-100.00,North,5,7.0,15.0,41,-99.99,,,0.00,66.010002,,2013-04-25 03:11:00,
2013-04-24 20:42:00,58.0,40.0,-100.00,NNE,18,4.0,10.0,51,-99.99,,,0.00,6.970000,,2013-04-25 03:42:00,
2013-04-24 20:52:00,58.0,40.0,-100.00,NNE,18,4.0,10.0,51,-99.99,,,0.00,6.970000,,2013-04-25 03:52:00,
2013-04-24 21:03:00,58.0,40.0,-100.00,NNE,18,4.0,10.0,51,-99.99,,,0.00,6.970000,,2013-04-25 04:03:00,
2013-04-24 21:12:00,58.0,40.0,-100.00,NNE,18,4.0,10.0,51,-99.99,,,0.00,6.970000,,2013-04-25 04:12:00,
2013-04-24 21:43:00,56.0,40.0,-100.00,North,351,4.0,7.0,54,-99.99,,,0.00,0.120000,,2013-04-25 04:43:00,
2013-04-24 21:52:00,56.0,40.0,-100.00,North,351,4.0,7.0,54,-99.99,,,0.00,0.120000,,2013-04-25 04:52:00,
2013-04-24 22:02:00,56.0,40.0,-100.00,North,351,4.0,7.0,54,-99.99,,,0.00,0.120000,,2013-04-25 05:02:00,
2013-04-24 22:12:00,56.0,40.0,-100.00,North,351,4.0,7.0,54,-99.99,,,0.00,0.120000,,2013-04-25 05:12:00,
2013-04-24 22:42:00,54.0,41.0,-100.00,North,5,3.0,8.0,60,-99.99,,,0.00,0.000000,,2013-04-25 05:42:00,
2013-04-24 22:52:00,54.0,41.0,-100.00,North,5,3.0,8.0,60,-99.99,,,0.00,0.000000,,2013-04-25 05:52:00,
2013-04-24 23:01:00,54.0,41.0,-100.00,North,5,3.0,8.0,60,-99.99,,,0.00,0.000000,,2013-04-25 06:01:00,
2013-04-24 23:11:00,54.0,41.0,-100.00,North,5,3.0,8.0,60,-99.99,,,0.00,0.000000,,2013-04-25 06:11:00,